Weather History for Hibbing, MN

Change the Weather History Date:

Saturday, October 27, 2012

  Actual Average Record
Temperature  
Mean Temperature 30 °F -  
Max Temperature 35 °F 49 °F 75 °F (1983)
Min Temperature 26 °F 28 °F 0 °F (1976)
Degree Days  
Heating Degree Days 36    
Moisture  
Dew Point 20 °F    
Average Humidity 70    
Maximum Humidity 84    
Minimum Humidity 54    
Precipitation  
Precipitation 0.00 in - - ()
Sea Level Pressure  
Sea Level Pressure 30.32 in    
Wind  
Wind Speed 2 mph (West)    
Max Wind Speed 9 mph    
Max Gust Speed -    
Visibility 10 miles    
Events      
Averages and records for this station are not official NWS values.
T = Trace of Precipitation, MM = Missing Value Source: NWS Daily Summary

Daily Weather History Graph

Daily Weather History Graph

Search for Another Location

Airport:

Trip Planner

Search our weather history database for the weather conditions in past years. The results will help you decide how hot, cold, wet, or windy it might be!

Date:

Astronomy

Oct. 27, 2012 Rise Set
Actual Time 7:48 AM CDT 6:01 PM CDT
Civil Twilight 7:16 AM CDT 6:33 PM CDT
Nautical Twilight 6:40 AM CDT 7:09 PM CDT
Astronomical Twilight 6:04 AM CDT 7:44 PM CDT
Moon 4:51 PM CDT (10/27) 5:37 AM CDT (10/27)
Length of Visible Light 11h 16m
Length of Day
10h 13m
Waxing Gibbous, 96% of the Moon is Illuminated
Oct 27
Waxing Gibbous
Oct 29
Full
Nov 6
Last Quarter
Nov 13
New
Nov 20
First Quarter

Hourly Weather History & Observations

Time (CDT) Temp. Windchill Dew Point Humidity Pressure Visibility Wind Dir Wind Speed Gust Speed Precip Events Conditions
12:53 AM 26.1 °F - 19.9 °F 78% 30.30 in 10.0 mi Calm Calm - N/A   Overcast
1:53 AM 26.1 °F 21.9 °F 19.9 °F 78% 30.29 in 10.0 mi SSW 3.5 mph - N/A   Overcast
2:53 AM 27.0 °F 23.0 °F 19.9 °F 75% 30.30 in 10.0 mi Variable 3.5 mph - N/A   Overcast
3:53 AM 28.0 °F - 21.0 °F 75% 30.29 in 10.0 mi Calm Calm - N/A   Overcast
4:53 AM 27.0 °F - 21.0 °F 78% 30.29 in 10.0 mi Calm Calm - N/A   Overcast
5:53 AM 27.0 °F - 21.0 °F 78% 30.30 in 10.0 mi Calm Calm - N/A   Overcast
6:53 AM 27.0 °F 23.0 °F 21.9 °F 81% 30.31 in 10.0 mi SSW 3.5 mph - N/A   Overcast
7:53 AM 26.1 °F - 21.9 °F 84% 30.33 in 10.0 mi Calm Calm - N/A   Overcast
8:53 AM 27.0 °F - 21.9 °F 81% 30.34 in 10.0 mi Calm Calm - N/A   Overcast
10:20 AM 30.2 °F 24.3 °F 21.2 °F 69% 30.28 in 10.0 mi West 5.8 mph - N/A   Mostly Cloudy
10:39 AM 30.2 °F 24.3 °F 19.4 °F 64% 30.28 in 10.0 mi West 5.8 mph - N/A   Scattered Clouds
10:53 AM 32.0 °F 28.7 °F 19.9 °F 61% 30.34 in 10.0 mi West 3.5 mph - N/A   Scattered Clouds
11:53 AM 32.0 °F 25.6 °F 19.0 °F 59% 30.35 in 10.0 mi WNW 6.9 mph - N/A   Scattered Clouds
12:53 PM 33.1 °F 27.7 °F 19.0 °F 56% 30.34 in 10.0 mi West 5.8 mph - N/A   Overcast
1:53 PM 33.1 °F 26.9 °F 18.0 °F 54% 30.33 in 10.0 mi West 6.9 mph - N/A   Overcast
2:53 PM 33.1 °F 25.5 °F 18.0 °F 54% 30.33 in 10.0 mi WNW 9.2 mph - N/A   Overcast
3:53 PM 32.0 °F 25.6 °F 19.0 °F 59% 30.33 in 10.0 mi WNW 6.9 mph - N/A   Overcast
4:53 PM 33.1 °F - 19.0 °F 56% 30.33 in 10.0 mi Calm Calm - N/A   Overcast
5:53 PM 32.0 °F - 19.0 °F 59% 30.33 in 10.0 mi Calm Calm - N/A   Overcast
6:53 PM 30.0 °F - 21.9 °F 72% 30.34 in 10.0 mi Calm Calm - N/A   Overcast
7:53 PM 28.9 °F - 23.0 °F 78% 30.35 in 10.0 mi Calm Calm - N/A   Overcast
8:53 PM 30.0 °F - 21.9 °F 72% 30.35 in 10.0 mi Calm Calm - N/A   Overcast
9:53 PM 28.0 °F - 21.9 °F 78% 30.36 in 10.0 mi Calm Calm - N/A   Overcast
11:53 PM 28.0 °F - 21.9 °F 78% 30.37 in 10.0 mi Calm Calm - N/A   Mostly Cloudy